TimeEDT,TemperatureF,Dew PointF,Humidity,Sea Level PressureIn,VisibilityMPH,Wind Direction,Wind SpeedMPH,Gust SpeedMPH,PrecipitationIn,Events,Conditions,WindDirDegrees,DateUTC
12:15 AM,57.6,51.3,79,30.18,10.0,Calm,Calm,-,N/A,,Clear,0,2012-10-23 04:15:00
12:35 AM,57.2,51.6,82,30.17,10.0,SE,3.5,-,N/A,,Clear,130,2012-10-23 04:35:00
1:15 AM,56.5,51.8,84,30.17,10.0,SE,3.5,-,N/A,,Clear,140,2012-10-23 05:15:00
1:35 AM,55.8,52.0,87,30.16,10.0,Calm,Calm,-,N/A,,Clear,0,2012-10-23 05:35:00
2:15 AM,56.5,52.9,88,30.15,10.0,ESE,3.5,-,N/A,,Clear,120,2012-10-23 06:15:00
2:35 AM,55.6,52.7,90,30.14,10.0,Calm,Calm,-,N/A,,Clear,0,2012-10-23 06:35:00
2:55 AM,52.0,52.2,100,30.14,10.0,Calm,Calm,-,N/A,,Clear,0,2012-10-23 06:55:00
3:15 AM,51.8,51.4,99,30.13,10.0,Calm,Calm,-,N/A,,Clear,0,2012-10-23 07:15:00
3:55 AM,49.8,49.6,99,30.12,10.0,Calm,Calm,-,N/A,,Clear,0,2012-10-23 07:55:00
4:15 AM,48.9,48.9,100,30.12,10.0,Calm,Calm,-,N/A,,Clear,0,2012-10-23 08:15:00
4:35 AM,49.1,49.3,100,30.12,10.0,Calm,Calm,-,N/A,,Clear,0,2012-10-23 08:35:00
4:55 AM,49.6,49.6,100,30.12,10.0,Calm,Calm,-,N/A,,Clear,0,2012-10-23 08:55:00
5:15 AM,49.5,49.5,100,30.12,10.0,Calm,Calm,-,N/A,,Clear,0,2012-10-23 09:15:00
5:35 AM,49.3,49.3,100,30.13,10.0,Calm,Calm,-,N/A,,Clear,0,2012-10-23 09:35:00
5:55 AM,48.4,48.4,100,30.13,10.0,Calm,Calm,-,N/A,,Clear,0,2012-10-23 09:55:00
6:15 AM,49.1,49.1,100,30.13,10.0,Calm,Calm,-,N/A,,Clear,0,2012-10-23 10:15:00
6:35 AM,50.4,49.8,98,30.14,10.0,Calm,Calm,-,N/A,,Clear,0,2012-10-23 10:35:00
6:55 AM,51.1,50.2,97,30.14,10.0,Calm,Calm,-,N/A,,Clear,0,2012-10-23 10:55:00
7:35 AM,52.0,50.9,96,30.15,10.0,ENE,4.6,-,N/A,,Clear,70,2012-10-23 11:35:00
7:55 AM,52.0,51.1,97,30.16,10.0,ENE,3.5,-,N/A,,Clear,60,2012-10-23 11:55:00
8:15 AM,52.3,51.3,96,30.17,10.0,Calm,Calm,-,N/A,,Clear,0,2012-10-23 12:15:00
8:35 AM,53.4,52.0,95,30.17,10.0,Calm,Calm,-,N/A,,Clear,0,2012-10-23 12:35:00
8:55 AM,54.9,52.7,92,30.17,10.0,Calm,Calm,-,N/A,,Clear,0,2012-10-23 12:55:00
9:15 AM,56.8,53.8,89,30.18,10.0,Calm,Calm,-,N/A,,Clear,0,2012-10-23 13:15:00
9:35 AM,59.2,54.5,84,30.18,10.0,Calm,Calm,-,N/A,,Clear,0,2012-10-23 13:35:00
9:55 AM,61.5,55.8,81,30.19,10.0,ENE,4.6,-,N/A,,Clear,70,2012-10-23 13:55:00
10:15 AM,63.9,57.2,79,30.19,10.0,ENE,4.6,-,N/A,,Clear,70,2012-10-23 14:15:00
10:35 AM,66.2,58.8,77,30.19,10.0,East,4.6,-,N/A,,Clear,90,2012-10-23 14:35:00
10:55 AM,67.8,59.7,75,30.19,10.0,East,5.8,-,N/A,,Clear,80,2012-10-23 14:55:00
11:15 AM,69.4,60.4,73,30.18,10.0,ENE,4.6,-,N/A,,Clear,70,2012-10-23 15:15:00
11:55 AM,71.6,61.3,70,30.17,10.0,NE,5.8,-,N/A,,Clear,50,2012-10-23 15:55:00
12:15 PM,73.0,61.5,67,30.17,10.0,ENE,3.5,-,N/A,,Clear,70,2012-10-23 16:15:00
12:35 PM,73.8,61.9,66,30.16,10.0,East,5.8,-,N/A,,Clear,100,2012-10-23 16:35:00
12:55 PM,74.8,61.7,64,30.15,10.0,SE,3.5,-,N/A,,Clear,130,2012-10-23 16:55:00
1:15 PM,75.7,61.7,62,30.14,10.0,East,6.9,-,N/A,,Scattered Clouds,80,2012-10-23 17:15:00
1:35 PM,76.3,61.9,61,30.13,10.0,Calm,Calm,-,N/A,,Clear,0,2012-10-23 17:35:00
1:55 PM,76.3,61.5,60,30.12,10.0,Calm,Calm,-,N/A,,Scattered Clouds,0,2012-10-23 17:55:00
2:15 PM,76.6,61.0,58,30.12,10.0,Calm,Calm,-,N/A,,Scattered Clouds,0,2012-10-23 18:15:00
2:35 PM,77.4,60.3,55,30.10,10.0,East,3.5,-,N/A,,Scattered Clouds,80,2012-10-23 18:35:00
2:55 PM,77.7,60.8,56,30.10,10.0,East,5.8,-,N/A,,Mostly Cloudy,80,2012-10-23 18:55:00
3:15 PM,77.7,61.0,56,30.09,10.0,Calm,Calm,-,N/A,,Scattered Clouds,0,2012-10-23 19:15:00
3:55 PM,78.3,59.5,52,30.09,10.0,ESE,6.9,-,N/A,,Scattered Clouds,110,2012-10-23 19:55:00
4:15 PM,77.9,59.7,53,30.09,10.0,Calm,Calm,-,N/A,,Scattered Clouds,0,2012-10-23 20:15:00
4:35 PM,78.4,59.9,53,30.09,10.0,ENE,4.6,-,N/A,,Mostly Cloudy,70,2012-10-23 20:35:00
4:55 PM,78.3,59.2,52,30.09,10.0,East,4.6,-,N/A,,Scattered Clouds,80,2012-10-23 20:55:00
5:15 PM,78.3,59.4,52,30.08,10.0,ENE,4.6,-,N/A,,Scattered Clouds,70,2012-10-23 21:15:00
5:35 PM,77.2,59.0,53,30.08,10.0,East,4.6,-,N/A,,Scattered Clouds,90,2012-10-23 21:35:00
5:55 PM,75.6,59.5,57,30.08,10.0,ENE,3.5,-,N/A,,Scattered Clouds,60,2012-10-23 21:55:00
6:15 PM,74.3,59.9,61,30.09,10.0,Calm,Calm,-,N/A,,Clear,0,2012-10-23 22:15:00
6:35 PM,72.0,60.6,67,30.09,10.0,Calm,Calm,-,N/A,,Clear,0,2012-10-23 22:35:00
6:55 PM,69.4,60.8,74,30.09,10.0,Calm,Calm,-,N/A,,Clear,0,2012-10-23 22:55:00
7:15 PM,69.1,60.1,73,30.10,10.0,East,3.5,-,N/A,,Clear,90,2012-10-23 23:15:00
7:35 PM,68.0,59.7,75,30.10,10.0,Calm,Calm,-,N/A,,Clear,0,2012-10-23 23:35:00
7:55 PM,66.9,59.7,78,30.11,10.0,Calm,Calm,-,N/A,,Clear,0,2012-10-23 23:55:00
8:15 PM,66.6,59.5,78,30.11,10.0,East,3.5,-,N/A,,Clear,100,2012-10-24 00:15:00
8:35 PM,66.4,59.4,78,30.12,10.0,ESE,4.6,-,N/A,,Clear,110,2012-10-24 00:35:00
8:55 PM,67.8,59.7,75,30.12,10.0,Calm,Calm,-,N/A,,Clear,0,2012-10-24 00:55:00
9:15 PM,67.5,60.3,78,30.12,10.0,SE,3.5,-,N/A,,Clear,130,2012-10-24 01:15:00
9:35 PM,66.9,60.8,81,30.13,10.0,SE,5.8,-,N/A,,Clear,130,2012-10-24 01:35:00
9:55 PM,66.6,61.2,83,30.13,10.0,ESE,4.6,-,N/A,,Clear,120,2012-10-24 01:55:00
10:15 PM,65.5,61.3,86,30.13,10.0,SE,4.6,-,N/A,,Clear,130,2012-10-24 02:15:00
10:35 PM,65.3,61.9,89,30.13,10.0,SE,4.6,-,N/A,,Clear,130,2012-10-24 02:35:00
10:55 PM,64.6,62.2,92,30.13,10.0,ESE,3.5,-,N/A,,Clear,120,2012-10-24 02:55:00
11:15 PM,64.0,62.1,93,30.14,10.0,ESE,3.5,-,N/A,,Clear,120,2012-10-24 03:15:00
11:35 PM,63.1,62.1,96,30.14,10.0,Calm,Calm,-,N/A,,Clear,0,2012-10-24 03:35:00
11:55 PM,62.6,61.9,97,30.14,10.0,Calm,Calm,-,N/A,,Clear,0,2012-10-24 03:55:00